Vorticity
6 4 7 7 6 5 3 4 5 4 3 4 7 7 4 4 13 9 6 4 7 6 8 6 6 9 11 14 14 13 8 -2 10 10 7 8 5 10 10 8 7 5 4 7
1 4 12 8 6 4 4 3 5 6 9 9 4 4 3 4 1 4 7 6 6 9 9 6 1 -1 3 3 0 12 5 9 11 12 13 14 15 12 5 7 13 10 6 5
10 15 12 8 4 6 8 9 11 10 8 5 5 7 8 10 11 10 4 11 10 4 5 6 7 5 12 10 7 12 14 9 4 15 2 -2 1 4 6 10 14 17 12 6
15 13 9 10 14 10 6 1 1 6 10 9 10 11 8 5 10 6 3 11 12 15 15 12 16 4 19 20 12 5 7 -3 -1 5 3 3 -1 1 3 4 3 7 8 9
10 9 4 4 4 8 11 15 10 8 5 6 -1 6 -0 0 1 2 -1 -3 9 16 14 11 17 28 20 2 15 10 -15 -6 6 9 5 7 5 0 -4 -3 -2 7 4 4
11 12 10 10 3 0 5 9 9 4 4 4 -2 3 -8 6 -1 3 6 8 4 3 3 3 6 -10 16 -4 7 -3 -3 -8 8 11 8 4 3 7 10 12 9 8 6 6
5 8 7 7 9 5 2 2 3 3 1 7 -4 4 -0 6 1 2 6 6 1 -1 3 5 9 5 9 -1 -17 -6 7 -1 9 -4 -4 -0 7 6 4 4 6 5 8 5
8 2 5 2 4 4 6 5 6 10 5 8 -0 5 11 3 8 11 6 2 1 5 4 4 3 3 3 2 5 6 8 6 11 14 21 22 12 5 7 9 8 4 4 8
11 7 5 8 6 4 10 14 12 17 22 28 17 14 4 3 10 12 15 11 10 10 13 9 11 11 12 13 12 10 12 11 11 8 7 14 6 21 6 6 5 8 1 2
3 4 4 4 6 9 15 11 11 20 -0 -13 -17 -3 4 20 21 15 15 14 15 13 15 10 3 6 11 6 9 11 14 16 12 13 14 11 10 10 5 5 10 10 3 2
8 12 3 10 14 16 7 6 12 19 12 17 12 -2 16 19 12 11 7 5 9 11 13 19 19 17 -7 0 9 10 12 10 9 15 14 24 13 6 7 4 2 6 5 10
13 9 7 7 7 6 9 8 13 10 0 20 12 -6 26 -2 -7 1 11 18 10 10 17 15 11 11 -12 -7 13 13 13 10 14 11 10 6 16 27 0 2 3 19 6 9
8 6 5 6 8 13 5 4 5 3 22 -7 18 11 15 16 14 3 6 21 8 2 10 4 -2 -7 -4 6 22 5 -7 -3 8 7 20 11 2 20 12 10 13 15 9 9
8 8 8 7 5 11 7 10 9 2 -11 41 12 -9 0 7 1 5 7 6 6 4 4 4 4 3 9 12 2 -6 5 13 11 5 5 -4 1 2 4 13 -4 -1 -13 5
9 3 14 6 9 10 8 8 8 5 5 1 5 5 2 12 2 -7 3 7 11 8 6 9 8 8 9 10 8 9 7 7 5 6 6 7 8 7 5 4 -1 -3 3 -3
5 4 7 4 8 8 8 -2 8 2 1 3 6 -2 13 6 6 6 3 3 5 4 7 8 8 9 9 10 8 6 5 6 5 5 6 8 10 10 6 6 11 13 8 6
6 9 8 1 11 9 1 9 3 3 2 4 11 10 7 10 12 12 15 17 18 18 18 19 18 19 19 17 15 11 10 10 12 12 10 9 9 9 10 11 6 1 4 10
6 7 7 5 6 2 10 7 10 10 7 15 13 16 24 20 22 26 27 25 23 24 24 20 21 21 20 19 19 19 16 15 12 13 16 18 16 13 13 13 10 8 8 5
6 7 10 4 7 8 3 16 7 21 22 17 23 21 18 20 20 21 21 15 17 16 17 18 17 15 14 14 15 17 17 17 16 15 15 16 17 18 19 18 18 20 22 18
7 7 5 6 12 10 19 18 25 27 7 28 19 21 21 23 20 25 19 20 18 16 13 12 13 13 12 13 14 15 15 15 13 13 13 12 13 15 17 19 19 20 19 20
10 8 6 13 17 16 13 18 16 14 31 14 17 15 15 15 15 13 10 10 11 12 11 10 10 10 11 11 12 11 10 9 11 12 12 12 12 13 14 15 15 14 16 19
10 14 24 28 20 9 25 22 21 16 14 11 11 11 10 10 9 7 9 10 10 9 8 8 8 8 9 9 11 12 13 13 14 15 15 16 19 21 21 21 21 21 19 18
19 24 17 11 21 19 22 14 14 15 12 10 6 7 8 7 7 6 7 9 12 12 10 8 8 9 11 13 15 15 11 15 17 16 22 24 26 31 35 37 37 37 34 31
11 28 12 26 19 13 9 14 14 8 8 9 5 6 5 7 9 10 10 11 10 11 13 11 10 13 15 12 13 13 14 15 21 24 26 33 25 20 18 16 15 16 16 18
19 15 21 15 13 12 10 10 10 7 4 7 9 8 8 9 10 8 12 13 15 12 11 13 15 12 13 11 12 19 19 19 21 24 23 23 1 1 23 29 21 14 14 17
18 14 12 11 12 11 9 6 11 12 10 8 8 8 7 8 10 12 15 14 11 15 15 11 9 8 14 21 25 18 23 20 21 32 9 2 4 10 22 20 27 24 26 28
Height
5799 5797 5795 5797 5791 5791 5789 5785 5783 5785 5782 5779 5782 5773 5772 5773 5783 5779 5777 5774 5773 5773 5772 5771 5769 5767 5767 5767 5767 5765 5766 5768 5767 5766 5764 5763 5762 5762 5761 5761 5762 5763 5763 5763
5789 5785 5786 5785 5783 5779 5778 5774 5773 5771 5770 5770 5766 5767 5769 5763 5766 5770 5768 5766 5766 5765 5765 5764 5762 5761 5758 5758 5759 5759 5758 5756 5756 5756 5757 5756 5754 5755 5753 5753 5753 5753 5751 5752
5777 5774 5771 5773 5771 5770 5767 5765 5763 5761 5759 5759 5753 5753 5752 5757 5755 5754 5755 5757 5757 5757 5756 5755 5754 5752 5751 5749 5747 5746 5748 5748 5748 5746 5745 5746 5748 5747 5746 5744 5743 5745 5743 5744
5765 5764 5763 5759 5759 5758 5759 5757 5755 5753 5749 5745 5742 5738 5745 5743 5739 5735 5739 5741 5740 5740 5742 5742 5741 5739 5739 5739 5739 5736 5736 5736 5738 5738 5737 5736 5734 5734 5736 5736 5734 5732 5732 5731
5757 5757 5755 5752 5752 5749 5748 5747 5746 5745 5741 5737 5737 5730 5734 5733 5729 5727 5727 5726 5726 5727 5727 5728 5728 5729 5728 5727 5726 5725 5724 5724 5724 5723 5723 5723 5723 5722 5721 5720 5721 5722 5720 5718
5745 5745 5744 5743 5742 5740 5739 5736 5734 5730 5729 5728 5731 5726 5728 5721 5715 5716 5717 5715 5716 5715 5714 5714 5714 5714 5716 5716 5715 5714 5712 5709 5709 5708 5707 5706 5706 5704 5704 5704 5703 5703 5704 5704
5729 5730 5730 5729 5728 5727 5726 5725 5720 5717 5716 5718 5718 5713 5718 5711 5712 5707 5705 5703 5703 5703 5702 5700 5699 5699 5699 5699 5698 5696 5694 5693 5693 5693 5693 5691 5688 5688 5686 5685 5685 5685 5686 5686
5715 5720 5716 5716 5717 5716 5712 5712 5707 5700 5704 5703 5704 5701 5705 5700 5698 5693 5692 5690 5686 5685 5684 5684 5683 5683 5682 5681 5679 5677 5677 5675 5673 5672 5673 5674 5673 5670 5668 5667 5666 5666 5667 5668
5702 5706 5702 5702 5702 5703 5699 5698 5694 5685 5688 5681 5690 5689 5693 5687 5681 5681 5677 5675 5674 5670 5666 5663 5661 5661 5661 5660 5659 5658 5657 5656 5655 5653 5652 5652 5651 5650 5648 5647 5646 5645 5646 5646
5689 5686 5695 5690 5692 5691 5684 5683 5680 5677 5669 5665 5671 5673 5674 5677 5661 5663 5661 5659 5657 5652 5651 5646 5643 5640 5640 5639 5637 5636 5636 5634 5634 5633 5632 5632 5631 5631 5630 5629 5626 5626 5623 5627
5672 5665 5682 5671 5678 5676 5668 5665 5665 5661 5657 5648 5647 5652 5663 5652 5649 5645 5641 5637 5634 5631 5630 5628 5624 5620 5618 5618 5617 5615 5613 5613 5612 5610 5610 5610 5610 5610 5608 5608 5607 5605 5604 5605
5658 5648 5652 5663 5662 5656 5651 5651 5650 5643 5637 5634 5628 5626 5646 5638 5635 5629 5625 5621 5616 5614 5610 5606 5604 5602 5599 5597 5596 5594 5594 5593 5591 5589 5587 5587 5587 5587 5587 5586 5584 5584 5583 5584
5642 5635 5632 5640 5648 5644 5633 5635 5631 5630 5626 5617 5614 5613 5623 5618 5614 5609 5605 5605 5602 5597 5592 5587 5585 5582 5580 5577 5575 5572 5570 5571 5571 5569 5567 5566 5566 5566 5563 5562 5561 5560 5561 5562
5627 5626 5624 5619 5623 5626 5617 5616 5616 5612 5605 5601 5596 5597 5604 5600 5591 5586 5585 5584 5580 5578 5574 5569 5566 5560 5558 5557 5555 5551 5549 5547 5547 5545 5544 5543 5543 5543 5542 5540 5538 5536 5536 5537
5610 5607 5610 5604 5605 5605 5601 5598 5601 5596 5595 5586 5584 5579 5584 5580 5572 5563 5560 5561 5558 5555 5552 5547 5544 5541 5538 5534 5531 5528 5524 5521 5519 5518 5517 5515 5515 5515 5515 5513 5512 5512 5512 5512
5596 5590 5589 5586 5589 5584 5575 5580 5582 5577 5575 5567 5562 5553 5559 5549 5547 5541 5538 5537 5534 5530 5527 5523 5520 5516 5514 5509 5506 5502 5499 5498 5494 5492 5490 5488 5487 5486 5486 5486 5485 5484 5483 5482
5581 5573 5571 5562 5570 5562 5550 5568 5557 5554 5554 5547 5534 5531 5530 5525 5520 5517 5513 5510 5507 5504 5502 5498 5497 5494 5491 5486 5481 5478 5473 5467 5464 5462 5460 5457 5455 5455 5454 5452 5451 5452 5453 5453
5563 5560 5549 5541 5545 5531 5546 5540 5534 5527 5525 5522 5511 5505 5500 5497 5494 5493 5490 5485 5483 5481 5477 5473 5472 5470 5466 5462 5456 5452 5449 5442 5434 5432 5430 5427 5424 5422 5421 5419 5418 5416 5413 5416
5546 5543 5530 5524 5521 5513 5521 5521 5511 5504 5500 5496 5489 5483 5478 5474 5472 5476 5468 5464 5464 5460 5456 5451 5450 5447 5444 5438 5433 5430 5424 5416 5409 5403 5400 5397 5392 5388 5387 5386 5385 5382 5377 5378
5528 5521 5512 5507 5494 5488 5495 5490 5486 5480 5469 5473 5468 5463 5460 5455 5452 5458 5452 5446 5445 5441 5438 5433 5431 5428 5423 5416 5412 5408 5402 5395 5386 5379 5372 5368 5363 5358 5354 5351 5350 5349 5343 5341
5504 5500 5493 5485 5474 5468 5472 5469 5465 5460 5462 5455 5450 5448 5444 5441 5438 5437 5435 5430 5426 5423 5422 5416 5412 5409 5402 5394 5390 5386 5380 5372 5364 5357 5350 5342 5333 5325 5322 5318 5314 5309 5307 5305
5482 5480 5475 5465 5459 5454 5459 5452 5449 5446 5442 5440 5436 5433 5428 5426 5424 5420 5416 5413 5409 5404 5399 5397 5392 5387 5380 5372 5366 5361 5355 5345 5338 5332 5324 5315 5306 5296 5287 5280 5279 5274 5269 5268
5465 5467 5452 5450 5442 5443 5438 5436 5435 5431 5427 5427 5422 5420 5415 5412 5409 5405 5400 5397 5393 5387 5383 5377 5372 5367 5360 5351 5342 5335 5328 5319 5312 5305 5297 5287 5278 5269 5259 5250 5245 5239 5234 5230
5446 5449 5431 5434 5434 5431 5425 5421 5419 5417 5413 5412 5408 5405 5401 5397 5393 5389 5384 5380 5375 5370 5364 5359 5354 5349 5343 5333 5324 5313 5305 5295 5288 5281 5273 5263 5255 5248 5238 5228 5220 5214 5208 5203
5438 5423 5427 5411 5418 5415 5413 5409 5406 5403 5401 5398 5394 5389 5386 5382 5378 5373 5369 5363 5358 5353 5348 5342 5337 5332 5325 5316 5307 5296 5286 5279 5271 5263 5255 5247 5239 5230 5219 5207 5197 5190 5185 5177
5426 5417 5405 5400 5405 5397 5399 5398 5394 5387 5387 5384 5380 5376 5371 5367 5362 5358 5352 5347 5342 5337 5332 5328 5322 5316 5308 5299 5290 5280 5273 5264 5255 5248 5241 5234 5225 5213 5202 5190 5182 5170 5162 5157